Time,TemperatureF,DewpointF,PressureIn,WindDirection,WindDirectionDegrees,WindSpeedMPH,WindSpeedGustMPH,Humidity,HourlyPrecipIn,Conditions,Clouds,dailyrainin,SoftwareType,DateUTC
2013-10-03 00:09:00,72.7,71.0,30.04,NE,51,0.0,2.0,94,0.00,,,0.00,weatherlink.com 1.10,2013-10-03 04:09:00,
2013-10-03 00:24:00,72.9,71.0,30.04,NE,51,0.0,1.0,95,0.00,,,0.00,weatherlink.com 1.10,2013-10-03 04:24:00,
2013-10-03 00:39:00,72.8,71.0,30.04,NE,51,0.0,1.0,95,0.00,,,0.00,weatherlink.com 1.10,2013-10-03 04:39:00,
2013-10-03 00:54:00,72.1,70.0,30.04,NE,51,0.0,0.0,94,0.00,,,0.00,weatherlink.com 1.10,2013-10-03 04:54:00,
2013-10-03 01:09:00,71.1,70.0,30.04,NE,51,0.0,0.0,95,0.00,,,0.00,weatherlink.com 1.10,2013-10-03 05:09:00,
2013-10-03 01:24:00,70.7,70.0,30.04,NE,51,0.0,0.0,96,0.00,,,0.00,weatherlink.com 1.10,2013-10-03 05:24:00,
2013-10-03 01:39:00,70.8,70.0,30.04,NE,51,0.0,0.0,96,0.00,,,0.00,weatherlink.com 1.10,2013-10-03 05:39:00,
2013-10-03 01:54:00,70.3,69.0,30.03,NE,51,0.0,0.0,97,0.00,,,0.00,weatherlink.com 1.10,2013-10-03 05:54:00,
2013-10-03 02:09:00,70.2,69.0,30.02,NE,51,0.0,0.0,97,0.00,,,0.00,weatherlink.com 1.10,2013-10-03 06:09:00,
2013-10-03 02:24:00,69.8,69.0,30.02,NE,51,0.0,0.0,97,0.00,,,0.00,weatherlink.com 1.10,2013-10-03 06:24:00,
2013-10-03 02:39:00,69.8,69.0,30.01,NE,51,0.0,0.0,97,0.00,,,0.00,weatherlink.com 1.10,2013-10-03 06:39:00,
2013-10-03 02:54:00,69.8,69.0,30.01,NE,51,0.0,0.0,97,0.00,,,0.00,weatherlink.com 1.10,2013-10-03 06:54:00,
2013-10-03 03:09:00,69.9,69.0,30.00,NE,51,0.0,0.0,97,0.00,,,0.00,weatherlink.com 1.10,2013-10-03 07:09:00,
2013-10-03 03:24:00,70.6,70.0,30.00,NE,51,0.0,0.0,98,0.00,,,0.00,weatherlink.com 1.10,2013-10-03 07:24:00,
2013-10-03 03:39:00,69.6,69.0,30.00,NE,51,0.0,0.0,97,0.00,,,0.00,weatherlink.com 1.10,2013-10-03 07:39:00,
2013-10-03 03:54:00,70.4,70.0,29.99,NE,51,1.0,1.0,98,0.00,,,0.00,weatherlink.com 1.10,2013-10-03 07:54:00,
2013-10-03 04:09:00,70.6,70.0,29.98,NE,51,0.0,2.0,98,0.00,,,0.00,weatherlink.com 1.10,2013-10-03 08:09:00,
2013-10-03 04:24:00,70.4,70.0,29.98,NE,51,0.0,0.0,98,0.00,,,0.00,weatherlink.com 1.10,2013-10-03 08:24:00,
2013-10-03 04:39:00,70.5,70.0,29.98,NE,51,0.0,1.0,98,0.00,,,0.00,weatherlink.com 1.10,2013-10-03 08:39:00,
2013-10-03 04:54:00,70.2,70.0,29.97,NE,51,0.0,2.0,98,0.00,,,0.00,weatherlink.com 1.10,2013-10-03 08:54:00,
2013-10-03 05:09:00,70.1,70.0,29.97,NE,51,1.0,2.0,98,0.00,,,0.00,weatherlink.com 1.10,2013-10-03 09:09:00,
2013-10-03 05:24:00,70.1,70.0,29.97,NE,51,1.0,3.0,98,0.00,,,0.00,weatherlink.com 1.10,2013-10-03 09:24:00,
2013-10-03 05:39:00,69.9,69.0,29.97,NE,51,1.0,3.0,98,0.00,,,0.00,weatherlink.com 1.10,2013-10-03 09:39:00,
2013-10-03 05:54:00,70.0,69.0,29.97,ENE,61,0.0,3.0,98,0.00,,,0.00,weatherlink.com 1.10,2013-10-03 09:54:00,
2013-10-03 06:09:00,70.1,70.0,29.98,ENE,58,1.0,3.0,98,0.00,,,0.00,weatherlink.com 1.10,2013-10-03 10:09:00,
2013-10-03 06:24:00,70.2,69.0,29.99,ENE,58,1.0,2.0,97,0.00,,,0.00,weatherlink.com 1.10,2013-10-03 10:24:00,
2013-10-03 06:39:00,69.9,69.0,29.99,ENE,58,1.0,2.0,97,0.00,,,0.00,weatherlink.com 1.10,2013-10-03 10:39:00,
2013-10-03 06:54:00,69.9,69.0,29.99,ENE,58,0.0,2.0,97,0.00,,,0.00,weatherlink.com 1.10,2013-10-03 10:54:00,
2013-10-03 07:09:00,69.5,69.0,30.00,ENE,58,0.0,1.0,97,0.00,,,0.00,weatherlink.com 1.10,2013-10-03 11:09:00,
2013-10-03 07:24:00,69.5,69.0,30.00,ENE,58,2.0,2.0,97,0.00,,,0.00,weatherlink.com 1.10,2013-10-03 11:24:00,
2013-10-03 07:39:00,69.5,69.0,30.00,ENE,58,2.0,2.0,97,0.00,,,0.00,weatherlink.com 1.10,2013-10-03 11:39:00,
2013-10-03 07:54:00,69.7,69.0,30.01,ENE,58,0.0,2.0,97,0.00,,,0.00,weatherlink.com 1.10,2013-10-03 11:54:00,
2013-10-03 08:09:00,70.4,70.0,30.02,ENE,58,1.0,3.0,98,0.00,,,0.00,weatherlink.com 1.10,2013-10-03 12:09:00,
2013-10-03 08:24:00,71.5,71.0,30.02,NNE,19,1.0,3.0,97,0.00,,,0.00,weatherlink.com 1.10,2013-10-03 12:24:00,
2013-10-03 08:39:00,72.6,72.0,30.03,NE,53,2.0,5.0,97,0.00,,,0.00,weatherlink.com 1.10,2013-10-03 12:39:00,
2013-10-03 08:54:00,74.0,72.0,30.03,ENE,66,2.0,6.0,94,0.00,,,0.00,weatherlink.com 1.10,2013-10-03 12:54:00,
2013-10-03 09:10:00,75.1,72.0,30.03,NE,52,1.0,7.0,91,0.00,,,0.00,weatherlink.com 1.10,2013-10-03 13:10:00,
2013-10-03 09:25:00,76.6,73.0,30.04,ENE,63,3.0,5.0,89,0.00,,,0.00,weatherlink.com 1.10,2013-10-03 13:25:00,
2013-10-03 09:40:00,77.4,73.0,30.05,East,85,1.0,8.0,85,0.00,,,0.00,weatherlink.com 1.10,2013-10-03 13:40:00,
2013-10-03 09:55:00,79.1,74.0,30.05,East,79,0.0,7.0,83,0.00,,,0.00,weatherlink.com 1.10,2013-10-03 13:55:00,
2013-10-03 10:10:00,80.1,74.0,30.06,NE,56,6.0,6.0,82,0.00,,,0.00,weatherlink.com 1.10,2013-10-03 14:10:00,
2013-10-03 10:25:00,80.7,74.0,30.06,East,86,1.0,8.0,80,0.00,,,0.00,weatherlink.com 1.10,2013-10-03 14:25:00,
2013-10-03 10:40:00,81.3,74.0,30.07,ENE,62,1.0,4.0,78,0.00,,,0.00,weatherlink.com 1.10,2013-10-03 14:40:00,
2013-10-03 10:55:00,82.0,74.0,30.07,NE,49,1.0,8.0,77,0.00,,,0.00,weatherlink.com 1.10,2013-10-03 14:55:00,
2013-10-03 11:10:00,83.4,75.0,30.07,NE,43,2.0,6.0,76,0.00,,,0.00,weatherlink.com 1.10,2013-10-03 15:10:00,
2013-10-03 11:25:00,83.3,74.0,30.07,SSE,163,0.0,6.0,74,0.00,,,0.00,weatherlink.com 1.10,2013-10-03 15:25:00,
2013-10-03 11:40:00,84.2,74.0,30.06,NNE,29,2.0,4.0,72,0.00,,,0.00,weatherlink.com 1.10,2013-10-03 15:40:00,
2013-10-03 11:55:00,83.5,73.0,30.06,NE,47,4.0,6.0,71,0.00,,,0.00,weatherlink.com 1.10,2013-10-03 15:55:00,
2013-10-03 12:10:00,84.7,74.0,30.06,NE,55,0.0,10.0,71,0.00,,,0.00,weatherlink.com 1.10,2013-10-03 16:10:00,
2013-10-03 12:25:00,85.2,73.0,30.05,NE,54,4.0,7.0,67,0.00,,,0.00,weatherlink.com 1.10,2013-10-03 16:25:00,
2013-10-03 12:40:00,86.1,73.0,30.05,NE,34,3.0,4.0,65,0.00,,,0.00,weatherlink.com 1.10,2013-10-03 16:40:00,
2013-10-03 12:55:00,86.4,73.0,30.04,ENE,62,3.0,5.0,65,0.00,,,0.00,weatherlink.com 1.10,2013-10-03 16:55:00,
2013-10-03 13:10:00,86.3,73.0,30.03,NE,40,2.0,8.0,64,0.00,,,0.00,weatherlink.com 1.10,2013-10-03 17:10:00,
2013-10-03 13:25:00,86.3,72.0,30.03,NNE,31,0.0,9.0,63,0.00,,,0.00,weatherlink.com 1.10,2013-10-03 17:25:00,
2013-10-03 13:40:00,87.2,74.0,30.02,SW,234,1.0,6.0,64,0.00,,,0.00,weatherlink.com 1.10,2013-10-03 17:40:00,
2013-10-03 13:55:00,87.6,72.0,30.02,NE,34,4.0,6.0,60,0.00,,,0.00,weatherlink.com 1.10,2013-10-03 17:55:00,
2013-10-03 14:10:00,87.3,72.0,30.01,WNW,302,0.0,6.0,61,0.00,,,0.00,weatherlink.com 1.10,2013-10-03 18:10:00,
2013-10-03 14:25:00,88.1,73.0,30.01,NE,49,1.0,12.0,62,0.00,,,0.00,weatherlink.com 1.10,2013-10-03 18:25:00,
2013-10-03 14:40:00,88.6,73.0,30.00,ENE,57,0.0,3.0,61,0.00,,,0.00,weatherlink.com 1.10,2013-10-03 18:40:00,
2013-10-03 14:55:00,87.5,71.0,30.00,NNE,30,4.0,5.0,59,0.00,,,0.00,weatherlink.com 1.10,2013-10-03 18:55:00,
2013-10-03 15:10:00,88.1,73.0,29.99,ENE,67,0.0,4.0,61,0.00,,,0.00,weatherlink.com 1.10,2013-10-03 19:10:00,
2013-10-03 15:25:00,87.8,72.0,29.98,NW,316,2.0,4.0,59,0.00,,,0.00,weatherlink.com 1.10,2013-10-03 19:25:00,
2013-10-03 15:40:00,89.1,73.0,29.98,NE,43,0.0,5.0,60,0.00,,,0.00,weatherlink.com 1.10,2013-10-03 19:40:00,
2013-10-03 15:55:00,88.6,73.0,29.98,East,82,0.0,2.0,61,0.00,,,0.00,weatherlink.com 1.10,2013-10-03 19:55:00,
2013-10-03 16:10:00,88.1,71.0,29.97,NE,55,2.0,7.0,58,0.00,,,0.00,weatherlink.com 1.10,2013-10-03 20:10:00,
2013-10-03 16:25:00,88.4,72.0,29.97,NE,48,2.0,4.0,59,0.00,,,0.00,weatherlink.com 1.10,2013-10-03 20:25:00,
2013-10-03 16:40:00,87.7,72.0,29.97,NNE,28,5.0,8.0,59,0.00,,,0.00,weatherlink.com 1.10,2013-10-03 20:40:00,
2013-10-03 16:55:00,87.2,72.0,29.97,NE,53,0.0,7.0,61,0.00,,,0.00,weatherlink.com 1.10,2013-10-03 20:55:00,
2013-10-03 17:10:00,85.9,72.0,29.97,NNE,23,4.0,6.0,64,0.00,,,0.00,weatherlink.com 1.10,2013-10-03 21:10:00,
2013-10-03 17:25:00,86.7,72.0,29.97,ENE,60,2.0,7.0,62,0.00,,,0.00,weatherlink.com 1.10,2013-10-03 21:25:00,
2013-10-03 17:40:00,85.8,72.0,29.98,ENE,71,0.0,4.0,64,0.00,,,0.00,weatherlink.com 1.10,2013-10-03 21:40:00,
2013-10-03 17:55:00,84.9,73.0,29.98,NE,56,0.0,4.0,67,0.00,,,0.00,weatherlink.com 1.10,2013-10-03 21:55:00,
2013-10-03 18:10:00,84.4,72.0,29.98,NE,56,1.0,4.0,66,0.00,,,0.00,weatherlink.com 1.10,2013-10-03 22:10:00,
2013-10-03 18:25:00,83.8,72.0,29.99,NE,56,2.0,2.0,67,0.00,,,0.00,weatherlink.com 1.10,2013-10-03 22:25:00,
2013-10-03 18:40:00,83.5,72.0,29.99,ENE,59,0.0,2.0,68,0.00,,,0.00,weatherlink.com 1.10,2013-10-03 22:40:00,
2013-10-03 18:55:00,82.6,71.0,29.99,ENE,59,0.0,1.0,69,0.00,,,0.00,weatherlink.com 1.10,2013-10-03 22:55:00,
2013-10-03 19:10:00,81.9,72.0,29.99,ENE,61,1.0,3.0,71,0.00,,,0.00,weatherlink.com 1.10,2013-10-03 23:10:00,
2013-10-03 19:26:00,81.5,72.0,29.99,ENE,67,2.0,4.0,73,0.00,,,0.00,weatherlink.com 1.10,2013-10-03 23:26:00,
2013-10-03 19:41:00,81.1,73.0,29.99,ENE,63,3.0,4.0,75,0.00,,,0.00,weatherlink.com 1.10,2013-10-03 23:41:00,
2013-10-03 19:56:00,80.6,73.0,30.00,NE,55,2.0,4.0,77,0.00,,,0.00,weatherlink.com 1.10,2013-10-03 23:56:00,
2013-10-03 20:11:00,80.3,73.0,30.00,ENE,64,2.0,4.0,78,0.00,,,0.00,weatherlink.com 1.10,2013-10-04 00:11:00,
2013-10-03 20:26:00,80.1,73.0,30.00,ENE,68,1.0,4.0,79,0.00,,,0.00,weatherlink.com 1.10,2013-10-04 00:26:00,
2013-10-03 20:41:00,79.9,73.0,30.01,ENE,57,1.0,4.0,79,0.00,,,0.00,weatherlink.com 1.10,2013-10-04 00:41:00,
2013-10-03 20:56:00,79.5,73.0,30.01,ENE,69,2.0,7.0,80,0.00,,,0.00,weatherlink.com 1.10,2013-10-04 00:56:00,
2013-10-03 21:11:00,79.2,73.0,30.02,ENE,72,0.0,3.0,80,0.00,,,0.00,weatherlink.com 1.10,2013-10-04 01:11:00,
2013-10-03 21:26:00,78.3,73.0,30.03,ENE,72,0.0,0.0,84,0.00,,,0.00,weatherlink.com 1.10,2013-10-04 01:26:00,
2013-10-03 21:41:00,78.0,73.0,30.03,ENE,72,0.0,0.0,84,0.00,,,0.00,weatherlink.com 1.10,2013-10-04 01:41:00,
2013-10-03 21:56:00,77.5,73.0,30.04,ENE,72,0.0,1.0,85,0.00,,,0.00,weatherlink.com 1.10,2013-10-04 01:56:00,
2013-10-03 22:11:00,76.1,73.0,30.04,ENE,72,0.0,0.0,89,0.00,,,0.00,weatherlink.com 1.10,2013-10-04 02:11:00,
2013-10-03 22:26:00,75.5,73.0,30.04,ENE,72,0.0,0.0,91,0.00,,,0.00,weatherlink.com 1.10,2013-10-04 02:26:00,
2013-10-03 22:41:00,75.2,73.0,30.05,ENE,72,0.0,0.0,92,0.00,,,0.00,weatherlink.com 1.10,2013-10-04 02:41:00,
2013-10-03 22:56:00,74.8,72.0,30.05,ENE,72,0.0,0.0,92,0.00,,,0.00,weatherlink.com 1.10,2013-10-04 02:56:00,
2013-10-03 23:11:00,74.3,73.0,30.05,ENE,72,0.0,0.0,94,0.00,,,0.00,weatherlink.com 1.10,2013-10-04 03:11:00,
2013-10-03 23:26:00,73.9,72.0,30.05,ENE,72,0.0,0.0,94,0.00,,,0.00,weatherlink.com 1.10,2013-10-04 03:26:00,
2013-10-03 23:41:00,73.9,72.0,30.05,ENE,72,0.0,0.0,94,0.00,,,0.00,weatherlink.com 1.10,2013-10-04 03:41:00,
2013-10-03 23:56:00,73.5,72.0,30.05,ENE,72,0.0,0.0,94,0.00,,,0.00,weatherlink.com 1.10,2013-10-04 03:56:00,